Location: Unspecified
(0.0000°N, 0.0000°E)
Time: 19:32:53
(UTC+00:00)

LAPAN-TUBSAT - Visible Passes

Search period start: 18 May 2026 00:00
Search period end: 28 May 2026 00:00
Orbit: 603 x 618 km, 98.1° (Epoch: 18 May)

Date Brightness Start Highest point End Pass type
(mag) Time Alt. Az. Time Alt. Az. Time Alt. Az.
18 May ? 04:28:20 10° ENE 04:30:52 15° ESE 04:33:24 10° SE visible
19 May ? 04:41:43 10° NE 04:45:11 24° ESE 04:48:40 10° SSE visible
19 May ? 18:27:32 10° WSW 18:27:58 10° WSW 18:28:24 10° W visible
20 May ? 04:55:33 10° NNE 04:59:31 38° ESE 05:03:30 10° S visible
21 May ? 05:09:37 10° NNE 05:13:51 64° ESE 05:18:05 10° S visible
22 May ? 05:23:55 10° N 05:28:11 78° WNW 05:32:27 10° SSW visible
24 May ? 04:20:15 10° E 04:21:13 11° ESE 04:22:11 10° ESE visible
25 May ? 04:32:43 10° ENE 04:35:32 17° ESE 04:38:20 10° SE visible
26 May ? 04:46:14 10° NE 04:49:50 27° ESE 04:53:27 10° SSE visible
27 May ? 05:00:06 10° NNE 05:04:09 43° ESE 05:08:12 10° S visible
